Location: Grieser Field
(39.7333°N, 81.7975°W)
Time: 09:01:02
(UTC-04:00)

MOS 1-B - Visible Passes

Search period start: 20 October 2014 00:00
Search period end: 30 October 2014 00:00
Orbit: 906 x 914 km, 99.2° (Epoch: 19 October)

Date Brightness Start Highest point End Pass type
(mag) Time Alt. Az. Time Alt. Az. Time Alt. Az.
20 Oct 6.9 04:02:40 10° NNE 04:03:05 12° NNE 04:03:05 12° NNE visible
21 Oct 6.9 04:08:15 10° N 04:08:38 12° N 04:08:38 12° N visible
22 Oct 6.9 04:13:52 10° N 04:14:10 12° N 04:14:10 12° N visible
23 Oct 6.9 04:19:29 10° N 04:19:43 11° N 04:19:43 11° N visible
24 Oct 6.9 04:25:07 10° N 04:25:16 11° N 04:25:16 11° N visible
25 Oct 6.9 04:30:45 10° N 04:30:49 10° N 04:30:49 10° N visible
